Change the Weather History Date:

Thursday, July 25, 2013

  Actual Average Record
Temperature  
Mean Temperature 66 °F -  
Max Temperature 71 °F 77 °F 90 °F (2010)
Min Temperature 62 °F 60 °F 48 °F (2002)
Cooling Degree Days 2    
Growing Degree Days 16 (Base 50)    
Moisture  
Dew Point 59 °F    
Average Humidity 83    
Maximum Humidity 94    
Minimum Humidity 61    
Precipitation  
Precipitation 0.28 in - - ()
Sea Level Pressure  
Sea Level Pressure 30.02 in    
Wind  
Wind Speed 11 mph (NNE)    
Max Wind Speed 14 mph    
Max Gust Speed 23 mph    
Visibility 10 miles    
Events Rain    
Averages and records for this station are not official NWS values.
T = Trace of Precipitation, MM = Missing Value Source: NWS Daily Summary

Daily Weather History Graph

Daily Weather History Graph

Search for Another Location

Airport or City:

Trip Planner

Search our weather history database for the weather conditions in past years. The results will help you decide how hot, cold, wet, or windy it might be!

Date:

Astronomy

Jul. 25, 2013 Rise Set
Actual Time 5:40 AM EDT 8:13 PM EDT
Civil Twilight 5:08 AM EDT 8:44 PM EDT
Nautical Twilight 4:29 AM EDT 9:23 PM EDT
Astronomical Twilight 3:45 AM EDT 10:07 PM EDT
Moon 9:50 PM EDT (7/25) 9:08 AM EDT (7/25)
Length of Visible Light 15h 35m
Length of Day
14h 32m
Waning Gibbous, 88% of the Moon is Illuminated
Jul 25
Waning Gibbous
Jul 29
Last Quarter
Aug 6
New
Aug 14
First Quarter
Aug 20
Full

Hourly Weather History & Observations

Time (EDT) Temp. Dew Point Humidity Pressure Visibility Wind Dir Wind Speed Gust Speed Precip Events Conditions
12:53 AM 71.1 °F 57.0 °F 61% 29.93 in 10.0 mi North 9.2 mph - N/A   Mostly Cloudy
1:53 AM 70.0 °F 57.0 °F 63% 29.93 in 10.0 mi North 9.2 mph - N/A   Overcast
2:53 AM 70.0 °F 57.9 °F 65% 29.93 in 10.0 mi North 12.7 mph - N/A   Overcast
3:53 AM 69.1 °F 57.9 °F 68% 29.94 in 10.0 mi North 10.4 mph - 0.00 in   Overcast
4:53 AM 66.9 °F 57.0 °F 70% 29.95 in 10.0 mi North 13.8 mph - N/A   Overcast
5:53 AM 63.0 °F 57.9 °F 84% 29.97 in 10.0 mi North 9.2 mph - 0.03 in Rain Light Rain
6:11 AM 62.6 °F 59.0 °F 88% 29.97 in 10.0 mi North 8.1 mph - 0.00 in   Overcast
6:53 AM 63.0 °F 57.0 °F 81% 29.99 in 10.0 mi North 9.2 mph - 0.00 in   Overcast
7:53 AM 63.0 °F 57.0 °F 81% 30.00 in 10.0 mi NNE 12.7 mph - N/A   Overcast
8:53 AM 64.0 °F 55.9 °F 75% 30.02 in 10.0 mi NNE 9.2 mph - N/A   Overcast
9:53 AM 64.9 °F 55.9 °F 73% 30.04 in 10.0 mi NNE 11.5 mph 23.0 mph N/A   Overcast
10:53 AM 64.9 °F 55.0 °F 70% 30.04 in 10.0 mi NNE 13.8 mph - N/A   Overcast
11:53 AM 64.0 °F 55.9 °F 75% 30.05 in 10.0 mi North 9.2 mph - N/A   Overcast
12:53 PM 62.1 °F 57.9 °F 86% 30.06 in 7.0 mi North 10.4 mph - 0.06 in Rain Light Rain
1:10 PM 62.6 °F 57.2 °F 82% 30.05 in 10.0 mi North 11.5 mph - 0.00 in Rain Light Rain
1:53 PM 63.0 °F 59.0 °F 87% 30.05 in 10.0 mi NNE 12.7 mph - 0.00 in Rain Light Rain
2:53 PM 63.0 °F 59.0 °F 87% 30.04 in 10.0 mi NNE 11.5 mph - 0.00 in   Overcast
3:53 PM 63.0 °F 60.1 °F 90% 30.04 in 7.0 mi North 9.2 mph - 0.03 in Rain Light Rain
4:53 PM 63.0 °F 60.1 °F 90% 30.04 in 7.0 mi NNE 11.5 mph - 0.03 in Rain Light Rain
5:24 PM 62.6 °F 60.8 °F 94% 30.04 in 9.0 mi NNE 10.4 mph 18.4 mph 0.04 in Rain Light Rain
5:53 PM 63.0 °F 60.1 °F 90% 30.05 in 10.0 mi NNE 11.5 mph - 0.04 in Rain Light Rain
6:09 PM 62.6 °F 60.8 °F 94% 30.04 in 10.0 mi NNE 10.4 mph 21.9 mph 0.00 in Rain Light Rain
6:35 PM 62.6 °F 60.8 °F 94% 30.05 in 10.0 mi North 10.4 mph - 0.00 in   Overcast
6:53 PM 63.0 °F 60.1 °F 90% 30.05 in 10.0 mi NNE 9.2 mph - 0.00 in   Overcast
7:23 PM 62.6 °F 60.8 °F 94% 30.05 in 10.0 mi North 11.5 mph - N/A   Overcast
7:53 PM 63.0 °F 60.1 °F 90% 30.05 in 8.0 mi NNE 11.5 mph - 0.01 in Rain Light Rain
8:21 PM 62.6 °F 60.8 °F 94% 30.04 in 6.0 mi NNE 11.5 mph - 0.04 in Rain Light Rain
8:53 PM 62.1 °F 59.0 °F 90% 30.04 in 10.0 mi NNE 11.5 mph - 0.04 in Rain Light Rain
9:53 PM 63.0 °F 60.1 °F 90% 30.04 in 10.0 mi NNE 12.7 mph 19.6 mph 0.01 in Rain Light Rain
10:53 PM 62.1 °F 60.1 °F 93% 30.03 in 10.0 mi NNE 10.4 mph 17.3 mph 0.01 in   Overcast
11:53 PM 62.1 °F 59.0 °F 90% 30.04 in 10.0 mi North 8.1 mph - 0.02 in Rain Light Rain